{"data":{"norad_id":69247,"intl_designator":"2026-117K","name":"STARLINK-37238","alt_names":[],"object_type":"PAYLOAD","status":"ACTIVE","operator":null,"country":"US","launch_date":"2026-05-29","launch_site_code":"AFETR","launch_vehicle":null,"mission":null,"orbit_class":"UNKNOWN","rcs_meters":null,"size_class":null,"mass_kg":null,"dimensions":null,"purposes":["comms"],"wikipedia_slug":null,"has_3d_model":false,"image_url":null,"decayed_at":null,"tle_current":{"epoch":"2026-09-19T22:43:20.635104Z","epoch_age_seconds":74774,"freshness":"FRESH","line1":"1 69247U 26117K   26262.94676661  .00008991  00000+0  27689-3 0  9999","line2":"2 69247  53.1579 156.2247 0001456  71.3403 288.7757 15.34404257 17581","mean_motion":15.34404257,"eccentricity":0.0001456,"inclination_deg":53.1579,"raan_deg":156.2247,"arg_perigee_deg":71.3403,"mean_anomaly_deg":288.7757,"bstar":0.00027689,"rev_number":1758,"period_min":93.847497713244,"perigee_km":461.69456303849,"apogee_km":463.68661203198,"semimajor_km":6840.8275875352,"source":"CELESTRAK","updated_at":"2026-09-20T09:00:44.149092Z"}}}